[[{"header":{"parameterUnit":"m.s-1","parameterCategory":1,"la1":30.2991,"la2":30.254,"lo1":-89.0895,"lo2":-89.0444,"dy":0.0017,"dx":0.0017,"nx":28,"ny":28,"refTime":"2024-10-18T21:00:00:Z","depth":0,"parameterNumber":2,"parameterNumberName":"U-component_of_WINDS"},"data":[0,0,0,0,0,0,0,0,0,0,0,0,0,0,0,0,0,0,0,0,0,0,0,0,0,0,0,0,0,0,0,0,0,0,0,0,0,0,0,0,0,0,0,0,0,0,0,0,0,0,0,0,0,0,0,0,0,0,-4.9204,-4.9205,0,-4.9258,-4.9259,-4.9259,-4.9099,-4.9094,-4.9089,-4.9085,-4.9141,-4.9147,-4.9153,0,0,0,0,0,0,0,0,0,0,0,0,0,-4.8961,-4.8967,-4.9204,-4.9205,-4.9205,-4.9258,-4.9259,-4.926,-4.91,-4.9094,-4.9088,-4.9083,-4.9139,-4.9146,-4.9153,0,0,0,0,0,0,0,0,0,0,0,0,0,-4.9046,-4.8968,-4.9204,-4.9132,-4.9126,-4.9258,-4.9259,-4.926,-4.9101,-4.9094,-4.9087,-4.908,-4.9137,-4.9145,-4.9154,-4.9358,0,0,-4.9182,-4.9186,0,0,0,0,0,0,0,0,-4.9042,-4.9055,-4.9142,-4.9137,-4.9131,-4.9164,-4.9194,-4.9293,-4.9103,-4.9111,-4.9085,-4.9076,-4.9155,-4.9162,-4.9188,-4.9361,-4.9363,-4.9183,-4.9189,-4.9192,-4.9195,0,0,0,0,0,0,0,-4.9036,-4.9052,-4.9225,-4.9143,-4.9137,-4.9097,-4.9101,-4.9212,-4.9174,-4.911,-4.9098,-4.9107,-4.915,-4.918,-4.9188,-4.9364,-4.9183,-4.9191,-4.9196,-4.92,-4.9705,-4.9712,0,0,0,0,0,0,-4.904,-4.9048,-4.9224,-4.9227,-4.9067,-4.9107,-4.9112,-4.9161,-4.9172,-4.9166,-4.9113,-4.9099,-4.9168,-4.9178,-4.919,-4.9428,-4.9192,-4.9201,-4.9206,-4.9697,-4.9707,-4.9715,0,0,0,0,0,0,-4.9035,-4.9057,-4.9221,-4.9135,-4.9152,-4.9119,-4.9176,-4.9166,-4.9195,-4.9174,-4.9167,-4.915,-4.9162,-4.9177,-4.9317,-4.9428,-4.9205,-4.9213,-4.9688,-4.97,-4.9711,-4.9908,0,0,0,0,0,0,-4.9029,-4.9056,-4.9134,-4.9138,-4.9158,-4.9349,-4.9183,-4.9172,-4.9212,-4.9194,-4.9207,-4.9203,-4.9158,-4.9304,-4.9326,-4.9437,-4.922,-4.9677,-4.9693,-4.9707,-4.9892,-4.9925,-4.9954,0,0,0,0,0,-4.9021,-4.9187,-4.9138,-4.916,-4.9254,-4.9356,-4.9367,-4.9312,-4.9221,-4.9299,-4.9285,-4.9202,-4.9412,-4.932,-4.9343,-4.9458,-4.967,-4.9689,-4.9706,-4.9878,-4.9919,-4.9954,0,0,0,0,0,0,-4.9198,-4.9187,-4.9132,-4.9305,-4.9333,-4.9328,-4.9424,-4.9358,-4.9412,-4.9393,-4.9322,-4.9327,-4.948,-4.9482,-4.938,-4.9655,-4.9526,-4.9549,-4.9648,-4.9687,-4.9718,-4.9714,-4.9228,0,0,0,0,0,-4.9257,-4.9341,-4.9326,-4.948,-4.9496,-4.9459,-4.9501,-4.9456,-4.9481,-4.9492,-4.9489,-4.9517,-4.9588,-4.9638,-4.9703,-4.9891,-4.9891,-4.9981,-5.0012,-5.0038,-5.006,-5.0158,-5.0198,-4.9774,-4.9774,-4.9773,0,0,-4.938,-4.9384,-4.9441,-4.9516,-4.9532,-4.9619,-4.9469,-4.9569,-4.9633,-4.9507,-4.9639,-4.9638,-4.9664,-4.9829,-4.9902,-4.9836,-5.0176,-5.0061,-5.0082,-5.0089,-5.0181,-5.0221,-5.0257,-4.9786,-4.9784,-4.9782,0,0,-4.9649,-4.9661,-4.979,-4.9809,-4.9835,-4.9808,-4.984,-4.9845,-4.9839,-4.9971,-4.9878,-4.9953,-5.0079,-5.0101,-5.0129,-5.0406,-5.0332,-5.0429,-5.0593,-5.069,-5.0724,-5.0753,-5.0852,-5.0888,-5.045,-5.0451,-5.0451,0,-4.98,-4.9928,-4.9865,-4.9971,-5.0006,-4.9895,-5.0026,-5.0047,-5.0093,-5.012,-5.0045,-5.02,-5.021,-5.0379,-5.0446,-5.0472,-5.0505,-5.0428,-5.0724,-5.0753,-5.0779,-5.0872,-5.091,-5.0462,-5.0461,-5.046,-5.0459,0,-5.0111,-5.0202,-5.0303,-5.035,-5.0397,-5.0514,-5.0469,-5.0523,-5.0474,-5.0455,-5.059,-5.0597,-5.0662,-5.0698,-5.0652,-5.086,-5.0819,-5.0736,-5.0604,-5.0832,-5.0919,-5.0954,-5.0479,-5.0475,-5.0471,-5.0468,0,0,-5.0496,-5.0505,-5.0543,-5.0563,-5.0582,-5.0651,-5.0763,-5.0826,-5.0874,-5.0909,-5.1001,-5.1109,-5.1032,-5.1064,-5.1018,-5.1104,-5.1322,-5.101,-5.1009,-5.1068,-5.1552,-5.1615,-5.1658,-5.1273,-5.1279,-5.1284,-5.155,0,-5.0761,-5.0953,-5.0899,-5.1092,-5.1174,-5.1069,-5.1167,-5.1189,-5.1174,-5.1242,-5.1225,-5.1303,-5.1195,-5.1213,-5.1293,-5.1279,-5.1419,-5.1259,-5.1358,-5.1362,-5.1355,-5.1703,-5.177,-5.202,-5.1583,-5.1589,-5.1593,0,-5.1097,-5.1145,-5.1346,-5.135,-5.1383,-5.1472,-5.1524,-5.159,-5.1613,-5.1596,-5.1632,-5.1568,-5.1677,-5.1545,-5.1695,-5.1587,-5.1624,-5.1623,-5.1631,-5.1639,-5.1492,-5.172,-5.2099,-5.2137,-5.1646,-5.1642,-5.1638,0,-5.1358,-5.1472,-5.1606,-5.1626,-5.1635,-5.17,-5.1707,-5.1722,-5.1763,-5.1809,-5.1834,-5.1893,-5.1925,-5.1971,-5.1925,-5.1833,-5.2082,-5.1945,-5.2071,-5.2073,-5.2129,-5.2127,-5.252,-5.2153,-5.2152,-5.2151,-5.2151,0,-5.166,-5.1787,-5.1723,-5.1807,-5.1945,-5.1881,-5.202,-5.2015,-5.2029,-5.2109,-5.2021,-5.2098,-5.2032,-5.2103,-5.2067,-5.2197,-5.2212,-5.2201,-5.219,-5.2209,-5.2211,-5.2233,-5.2215,-5.2161,-5.2159,-5.2157,-5.2155,0,-5.1975,-5.1938,-5.2077,-5.2074,-5.2076,-5.2179,-5.2175,-5.2252,-5.2229,-5.2331,-5.2352,-5.2318,-5.2396,-5.2354,-5.2435,-5.2411,-5.2579,-5.2544,-5.2572,-5.2563,-5.2691,-5.268,-5.3113,-5.3166,-5.2765,-5.2769,-5.2772,0,-5.2171,-5.2266,-5.2273,-5.232,-5.2332,-5.2409,-5.245,-5.239,-5.2436,-5.2469,-5.2542,-5.2612,-5.2666,-5.2796,-5.2779,-5.284,-5.2806,-5.2954,-5.2815,-5.2831,-5.2809,-5.2804,-5.2813,-5.2982,-5.2987,-5.2991,-5.2994,0,-5.2523,-5.25,-5.2562,-5.2618,-5.2669,-5.2711,-5.2745,-5.2788,-5.2728,-5.2785,-5.2864,-5.2905,-5.2988,-5.3059,-5.3112,-5.3118,-5.3047,-5.3037,-5.307,-5.3091,-5.3103,-5.3098,-5.2648,-5.3028,-5.3024,-5.3022,-5.302,-5.3019,-5.2785,-5.2864,-5.2881,-5.2953,-5.2972,-5.3006,-5.3077,-5.3063,-5.3128,-5.319,-5.3151,-5.3244,-5.3263,-5.3326,-5.3341,-5.3413,-5.3354,-5.3401,-5.3413,-5.3426,-5.3443,-5.3091,-5.3422,-5.3421,-5.342,-5.3419,-5.3419,0,-5.3132,-5.3137,-5.3204,-5.3254,-5.3311,-5.3238,-5.3271,-5.3324,-5.3407,-5.343,-5.3484,-5.3575,-5.3643,-5.3631,-5.3693,-5.3752,-5.3721,-5.3771,-5.3766,-5.3769,-5.3492,-5.3458,-5.3795,-5.3795,-5.3795,-5.3795,-5.3795,-5.3795,-5.332,-5.345,-5.3428,-5.3567,-5.357,-5.3661,-5.3686,-5.3717,-5.3735,-5.384,-5.3896,-5.3887,-5.3896,-5.3958,-5.4017,-5.4011,-5.4038,-5.41,-5.4083,-5.3825,-5.3788,-5.3753,-5.372,-5.4107,-5.4107,-5.4353,-5.4356,-5.4357]},{"header":{"parameterUnit":"m.s-1","parameterCategory":1,"la1":30.2991,"la2":30.254,"lo1":-89.0895,"lo2":-89.0444,"dy":0.0017,"dx":0.0017,"nx":28,"ny":28,"refTime":"2024-10-18T21:00:00:Z","depth":0,"parameterNumber":3,"parameterNumberName":"V-component_of_WINDS"},"data":[0,0,0,0,0,0,0,0,0,0,0,0,0,0,0,0,0,0,0,0,0,0,0,0,0,0,0,0,0,0,0,0,0,0,0,0,0,0,0,0,0,0,0,0,0,0,0,0,0,0,0,0,0,0,0,0,0,0,-3.4536,-3.4536,0,-3.4545,-3.4545,-3.4545,-3.4501,-3.45,-3.4498,-3.4497,-3.4505,-3.4507,-3.4508,0,0,0,0,0,0,0,0,0,0,0,0,0,-3.4479,-3.4481,-3.4536,-3.4536,-3.4536,-3.4545,-3.4545,-3.4545,-3.4501,-3.4499,-3.4498,-3.4496,-3.4505,-3.4507,-3.4508,0,0,0,0,0,0,0,0,0,0,0,0,0,-3.4498,-3.4481,-3.4536,-3.4515,-3.4514,-3.4545,-3.4545,-3.4545,-3.4501,-3.4499,-3.4498,-3.4496,-3.4504,-3.4506,-3.4508,-3.456,0,0,-3.4515,-3.4516,0,0,0,0,0,0,0,0,-3.4497,-3.45,-3.4518,-3.4517,-3.4515,-3.452,-3.4528,-3.455,-3.4502,-3.4506,-3.4497,-3.4495,-3.4512,-3.4513,-3.4519,-3.456,-3.456,-3.4515,-3.4516,-3.4517,-3.4518,0,0,0,0,0,0,0,-3.4495,-3.4499,-3.4539,-3.4519,-3.4517,-3.4505,-3.4505,-3.4532,-3.4519,-3.4505,-3.4502,-3.4504,-3.451,-3.4517,-3.4519,-3.4561,-3.4515,-3.4517,-3.4518,-3.4519,-3.4641,-3.4643,0,0,0,0,0,0,-3.4497,-3.4498,-3.4539,-3.454,-3.4501,-3.4508,-3.4508,-3.452,-3.4519,-3.4517,-3.4506,-3.4502,-3.4514,-3.4516,-3.4519,-3.4577,-3.4517,-3.4519,-3.452,-3.4639,-3.4642,-3.4644,0,0,0,0,0,0,-3.4496,-3.4501,-3.4539,-3.4518,-3.4522,-3.4511,-3.4524,-3.4521,-3.4528,-3.4519,-3.4516,-3.4515,-3.4513,-3.4516,-3.4549,-3.4576,-3.452,-3.4522,-3.4637,-3.464,-3.4643,-3.4694,0,0,0,0,0,0,-3.4495,-3.4501,-3.4521,-3.4519,-3.4523,-3.457,-3.4526,-3.4523,-3.4532,-3.4527,-3.4527,-3.4525,-3.4512,-3.4546,-3.4551,-3.4578,-3.4524,-3.4634,-3.4638,-3.4642,-3.469,-3.4699,-3.4706,0,0,0,0,0,-3.4493,-3.4536,-3.4522,-3.4528,-3.4548,-3.4572,-3.4574,-3.4558,-3.4534,-3.4553,-3.4547,-3.4525,-3.4573,-3.455,-3.4555,-3.4583,-3.4633,-3.4637,-3.4642,-3.4686,-3.4697,-3.4706,0,0,0,0,0,0,-3.4542,-3.4535,-3.452,-3.4564,-3.4569,-3.4564,-3.4588,-3.457,-3.4581,-3.4576,-3.4555,-3.4556,-3.4592,-3.4591,-3.4566,-3.4632,-3.4598,-3.4604,-3.4631,-3.4641,-3.4648,-3.4647,-3.4526,0,0,0,0,0,-3.4558,-3.4578,-3.4571,-3.461,-3.4613,-3.46,-3.461,-3.4597,-3.4601,-3.4603,-3.4599,-3.4603,-3.4619,-3.463,-3.4644,-3.469,-3.4688,-3.4712,-3.4719,-3.4726,-3.4731,-3.4753,-3.4762,-3.4659,-3.4658,-3.4658,0,0,-3.4591,-3.459,-3.4604,-3.462,-3.4622,-3.4642,-3.4602,-3.4626,-3.464,-3.4606,-3.4637,-3.4634,-3.4638,-3.4677,-3.4694,-3.4677,-3.4759,-3.4732,-3.4737,-3.4738,-3.4758,-3.4768,-3.4777,-3.4662,-3.4661,-3.4661,0,0,-3.4661,-3.4663,-3.4695,-3.4697,-3.47,-3.4691,-3.4699,-3.4697,-3.4694,-3.4724,-3.4698,-3.4715,-3.4743,-3.4746,-3.4751,-3.482,-3.4799,-3.4825,-3.4866,-3.4888,-3.4896,-3.4903,-3.4926,-3.4935,-3.483,-3.483,-3.483,0,-3.4702,-3.4732,-3.4713,-3.4738,-3.4745,-3.4714,-3.4745,-3.4748,-3.4756,-3.4761,-3.4743,-3.4776,-3.4776,-3.4814,-3.4831,-3.4837,-3.4843,-3.4825,-3.4896,-3.4903,-3.491,-3.4931,-3.494,-3.4833,-3.4833,-3.4833,-3.4832,0,-3.478,-3.4801,-3.4826,-3.4834,-3.4844,-3.4872,-3.4856,-3.4868,-3.4854,-3.4846,-3.4877,-3.4876,-3.4888,-3.4896,-3.4883,-3.4932,-3.4922,-3.49,-3.4866,-3.4923,-3.4943,-3.4951,-3.4838,-3.4837,-3.4836,-3.4835,0,0,-3.4883,-3.4878,-3.4888,-3.4889,-3.489,-3.4905,-3.4931,-3.4943,-3.4952,-3.4959,-3.4978,-3.5002,-3.4981,-3.4987,-3.4974,-3.4993,-3.5045,-3.4968,-3.4968,-3.4981,-3.5097,-3.5112,-3.5122,-3.5031,-3.5033,-3.5034,-3.5096,0,-3.495,-3.4994,-3.4977,-3.5021,-3.5039,-3.5009,-3.5031,-3.5033,-3.5027,-3.504,-3.5033,-3.5049,-3.5022,-3.5024,-3.5042,-3.5035,-3.5068,-3.503,-3.5049,-3.5049,-3.5047,-3.5133,-3.5149,-3.5208,-3.5104,-3.5105,-3.5106,0,-3.5035,-3.5043,-3.5089,-3.5084,-3.5091,-3.5111,-3.5119,-3.5133,-3.5134,-3.5127,-3.5133,-3.5115,-3.5138,-3.5105,-3.5137,-3.5111,-3.5118,-3.5115,-3.5117,-3.5117,-3.508,-3.5134,-3.5226,-3.5235,-3.5118,-3.5117,-3.5117,0,-3.5103,-3.5125,-3.5155,-3.5158,-3.5153,-3.5168,-3.5166,-3.5166,-3.5173,-3.518,-3.5184,-3.5194,-3.52,-3.5207,-3.5192,-3.5169,-3.5225,-3.5191,-3.5219,-3.5219,-3.5231,-3.523,-3.5325,-3.5238,-3.5238,-3.5237,-3.5237,0,-3.5179,-3.5208,-3.5185,-3.5203,-3.5234,-3.5214,-3.5245,-3.524,-3.5239,-3.5255,-3.523,-3.5246,-3.5225,-3.5238,-3.5226,-3.5253,-3.5256,-3.5251,-3.5247,-3.5252,-3.5253,-3.5255,-3.525,-3.524,-3.5239,-3.5239,-3.5238,0,-3.526,-3.5246,-3.5276,-3.5268,-3.5267,-3.529,-3.5283,-3.5299,-3.529,-3.531,-3.5314,-3.53,-3.5314,-3.5299,-3.5313,-3.5305,-3.534,-3.5331,-3.534,-3.5336,-3.5365,-3.5362,-3.5463,-3.5475,-3.5382,-3.5383,-3.5384,0,-3.5309,-3.533,-3.5324,-3.5332,-3.5332,-3.5347,-3.5354,-3.5334,-3.5342,-3.5344,-3.5359,-3.5371,-3.5379,-3.5403,-3.5394,-3.5404,-3.5394,-3.5429,-3.5395,-3.5399,-3.5392,-3.5391,-3.5392,-3.5435,-3.5436,-3.5437,-3.5438,0,-3.5396,-3.5388,-3.5399,-3.5406,-3.5415,-3.542,-3.5424,-3.5432,-3.5412,-3.5422,-3.5436,-3.5442,-3.5455,-3.5466,-3.5473,-3.5471,-3.5451,-3.5449,-3.5455,-3.546,-3.5464,-3.546,-3.5357,-3.5446,-3.5445,-3.5445,-3.5444,-3.5444,-3.5462,-3.5478,-3.5476,-3.5488,-3.5488,-3.5491,-3.5505,-3.5497,-3.5508,-3.5516,-3.5504,-3.5521,-3.5519,-3.5526,-3.5526,-3.5538,-3.5524,-3.5534,-3.5536,-3.5539,-3.5542,-3.5463,-3.554,-3.554,-3.5539,-3.5539,-3.5539,0,-3.5546,-3.5543,-3.5554,-3.5559,-3.5568,-3.5548,-3.555,-3.5559,-3.5573,-3.5574,-3.5582,-3.5597,-3.5607,-3.5598,-3.5607,-3.5618,-3.5609,-3.5621,-3.5619,-3.5619,-3.5556,-3.5548,-3.5628,-3.5628,-3.5628,-3.5628,-3.5628,-3.5628,-3.5592,-3.5618,-3.5608,-3.5634,-3.563,-3.5645,-3.5648,-3.565,-3.565,-3.5667,-3.5676,-3.567,-3.5666,-3.5673,-3.5682,-3.5679,-3.5683,-3.5698,-3.5691,-3.5632,-3.5624,-3.5615,-3.5608,-3.5699,-3.5699,-3.5753,-3.5753,-3.5754]}]]